S-NET D

Last updated on Sat Sep 12 2026 00:03:19 GMT+0000 (Coordinated Universal Time)

1 43186U 18014G 26254.60589443 .00003779 00000+0 19255-3 0 9994 2 43186 97.5260 158.8517 0009883 80.8318 279.4033 15.17354573471869
UTC large
Height (km)
Speed (km/s)
/
Latitude / Longitude
Inclination (degrees)
Orbital Period (minutes)
Azimuth
Elevation
Range (km)
Doppler Factor

Next 0 passes for location: London (51.5072 / 0.1276)

No passes found over London.
S-NET D